SV7JLF-3 Weather Reports


time (UTC)temp
C
wind
direction
speed
KPH
gust
KPH
rain 1hr
cm
rain 24hr
cm
rain mn
cm
humidity
%
barometer
mb
20260508013110 11 212 0.0 0.0 0.00 0.00 0.00 89 1017.3
20260508013023 11 212 1.6 0.0 0.00 0.00 0.00 88 1017.4
20260508012949 11 212 0.0 3.2 0.00 0.00 0.00 88 1017.1
20260508012537 11 212 1.6 0.0 0.00 0.00 0.00 88 1017.6
20260508012027 11 212 1.6 0.0 0.00 0.00 0.00 88 1017.4
20260508011949 11 212 1.6 3.2 0.00 0.00 0.00 88 1017.3
20260508011557 11 212 1.6 0.0 0.00 0.00 0.00 88 1017.3
20260508011517 11 212 1.6 0.0 0.00 0.00 0.00 88 1017.6
20260508011008 11 212 1.6 0.0 0.00 0.00 0.00 88 1017.5
20260508010950 11 212 3.2 4.8 0.00 0.00 0.00 88 1017.3
20260508010513 11 212 1.6 0.0 0.00 0.00 0.00 88 1017.6
20260508010048 11 212 1.6 0.0 0.00 0.00 0.00 88 1017.7
20260508010026 12 212 1.6 0.0 0.00 0.00 0.00 88 1017.6
20260508005949 12 212 1.6 3.2 0.00 0.00 0.00 88 1017.5
20260508005519 12 212 0.0 0.0 0.00 0.00 0.00 88 1017.8
20260508005031 12 212 0.0 0.0 0.00 0.00 0.00 88 1017.5
20260508004950 12 212 0.0 3.2 0.00 0.00 0.00 88 1017.3
20260508004549 12 212 1.6 0.0 0.00 0.00 0.00 88 1017.7
20260508004506 11 212 1.6 0.0 0.00 0.00 0.00 88 1017.8
20260508004034 12 212 1.6 0.0 0.00 0.00 0.00 88 1017.8
20260508003948 12 212 1.6 3.2 0.00 0.00 0.00 88 1017.5
20260508003526 12 212 1.6 0.0 0.00 0.00 0.00 88 1017.8
20260508003117 11 212 3.2 0.0 0.00 0.00 0.00 88 1017.8
20260508003035 12 212 3.2 0.0 0.00 0.00 0.00 88 1017.8
20260508002948 12 212 1.6 4.8 0.00 0.00 0.00 88 1017.5
20260508002529 12 212 4.8 0.0 0.00 0.00 0.00 88 1017.8
20260508002017 12 211 4.8 0.0 0.00 0.00 0.00 88 1017.9
20260508001949 12 211 3.2 4.8 0.00 0.00 0.00 88 1017.5
20260508001604 11 211 4.8 0.0 0.00 0.00 0.00 88 1017.8
20260508001532 12 211 4.8 0.0 0.00 0.00 0.00 87 1017.9
20260508001025 12 199 4.8 0.0 0.00 0.00 0.00 87 1017.9
20260508000949 12 199 4.8 4.8 0.00 0.00 0.00 87 1017.5
20260508000523 12 199 4.8 0.0 0.00 0.00 0.00 87 1017.9
20260508000047 12 190 4.8 0.0 0.00 0.00 0.00 87 1017.8
20260508000027 12 189 4.8 0.0 0.00 0.00 0.00 87 1017.9
20260507235949 12 184 4.8 4.8 0.00 0.00 0.00 87 1017.6
20260507235520 12 170 3.2 0.0 0.00 0.00 0.00 87 1017.9
20260507235037 12 169 3.2 0.0 0.00 0.00 0.00 87 1018.0
20260507234948 12 169 3.2 4.8 0.00 0.00 0.00 87 1017.6
20260507234531 12 169 1.6 0.0 0.00 0.00 0.00 87 1017.9
20260507234507 12 169 3.2 0.0 0.00 0.00 0.00 87 1018.0
20260507234041 12 169 3.2 0.0 0.00 0.00 0.00 87 1018.1
20260507233950 12 169 1.6 4.8 0.00 0.00 0.00 87 1017.7
20260507233510 12 169 3.2 0.0 0.00 0.00 0.00 87 1018.0
20260507233117 12 169 3.2 0.0 0.00 0.00 0.00 87 1018.1
20260507233023 12 169 3.2 0.0 0.00 0.00 0.00 87 1018.1
20260507232949 12 169 3.2 4.8 0.00 0.00 0.00 87 1018.0
20260507232512 12 169 1.6 0.0 0.00 0.00 0.00 86 1018.3
20260507232024 12 169 1.6 0.0 0.00 0.00 0.00 86 1018.3
20260507231950 12 169 0.0 4.8 0.00 0.00 0.00 86 1017.8
20260507231618 12 169 3.2 0.0 0.00 0.00 0.00 86 1018.1
20260507231518 12 169 4.8 0.0 0.00 0.00 0.00 86 1018.2
20260507231031 12 167 3.2 0.0 0.00 0.00 0.00 86 1018.2
20260507230949 12 167 3.2 4.8 0.00 0.00 0.00 86 1017.9
20260507230517 12 167 3.2 0.0 0.00 0.00 0.00 86 1018.3
20260507230118 12 167 3.2 0.0 0.00 0.00 0.00 86 1018.4
20260507230008 13 167 3.2 0.0 0.00 0.00 0.00 86 1018.4
20260507225517 13 167 3.2 0.0 0.00 0.00 0.00 86 1018.4
20260507225009 13 167 4.8 0.0 0.00 0.00 0.00 86 1018.2
20260507224949 13 167 4.8 8.0 0.00 0.00 0.00 86 1018.1
20260507224619 12 167 4.8 0.0 0.00 0.00 0.00 85 1018.4
20260507224523 13 166 4.8 0.0 0.00 0.00 0.00 85 1018.6
20260507224012 13 157 3.2 0.0 0.00 0.00 0.00 85 1018.4
20260507223520 13 211 3.2 0.0 0.00 0.00 0.00 85 1018.4
20260507223115 13 211 3.2 0.0 0.00 0.00 0.00 85 1018.3
20260507223033 13 211 3.2 0.0 0.00 0.00 0.00 85 1018.3
20260507222949 13 211 3.2 4.8 0.00 0.00 0.00 85 1018.0
20260507222529 13 203 3.2 0.0 0.00 0.00 0.00 85 1018.4
20260507222047 13 200 4.8 0.0 0.00 0.00 0.00 85 1018.4
20260507221548 13 200 3.2 0.0 0.00 0.00 0.00 85 1018.4
20260507221534 13 200 3.2 0.0 0.00 0.00 0.00 85 1018.3
20260507221007 13 217 1.6 0.0 0.00 0.00 0.00 85 1018.3
20260507220950 13 217 1.6 4.8 0.00 0.00 0.00 85 1018.2
20260507220524 13 217 1.6 0.0 0.00 0.00 0.00 85 1018.4
20260507220034 13 217 1.6 0.0 0.00 0.00 0.00 85 1018.4
20260507220011 13 217 3.2 0.0 0.00 0.00 0.00 85 1018.4
20260507215949 13 217 1.6 4.8 0.00 0.00 0.00 85 1018.2
20260507215524 13 217 1.6 0.0 0.00 0.00 0.00 85 1018.3
20260507215020 13 217 3.2 0.0 0.00 0.00 0.00 85 1018.3
20260507214950 13 217 0.0 4.8 0.00 0.00 0.00 85 1018.1
20260507214532 13 217 4.8 0.0 0.00 0.00 0.00 85 1018.3
20260507214516 13 217 4.8 0.0 0.00 0.00 0.00 85 1018.3
20260507214022 13 217 6.4 0.0 0.00 0.00 0.00 85 1018.4
20260507213950 13 209 4.8 8.0 0.00 0.00 0.00 85 1018.0
20260507213512 13 199 6.4 0.0 0.00 0.00 0.00 85 1018.3
20260507213040 13 190 6.4 0.0 0.00 0.00 0.00 85 1018.3
20260507213015 13 184 6.4 0.0 0.00 0.00 0.00 85 1018.3
20260507212949 13 185 8.0 9.7 0.00 0.00 0.00 85 1018.0
20260507212529 14 200 4.8 0.0 0.00 0.00 0.00 85 1018.1
20260507212022 14 212 6.4 0.0 0.00 0.00 0.00 85 1018.2
20260507211951 14 215 4.8 8.0 0.00 0.00 0.00 85 1017.7
20260507211638 13 217 6.4 0.0 0.00 0.00 0.00 85 1018.2
20260507211533 14 216 6.4 0.0 0.00 0.00 0.00 85 1018.3
20260507211013 14 208 6.4 0.0 0.00 0.00 0.00 84 1018.1
20260507210519 15 193 4.8 0.0 0.00 0.00 0.00 84 1018.0
20260507210141 14 179 3.2 0.0 0.00 0.00 0.00 84 1018.1
20260507210034 15 169 3.2 0.0 0.00 0.00 0.00 84 1018.1
20260507205949 15 137 1.6 8.0 0.00 0.00 0.00 84 1017.7
20260507205518 15 23 1.6 0.0 0.00 0.00 0.00 85 1018.0
20260507205011 15 23 0.0 0.0 0.00 0.00 0.00 86 1018.0
20260507204950 15 23 1.6 4.8 0.00 0.00 0.00 86 1017.6
20260507204618 15 18 0.0 0.0 0.00 0.00 0.00 86 1018.1
20260507204525 15 18 0.0 0.0 0.00 0.00 0.00 86 1018.1
20260507204010 15 17 1.6 0.0 0.00 0.00 0.00 86 1018.1
20260507203949 15 17 0.0 3.2 0.00 0.00 0.00 86 1017.8
20260507203524 15 17 3.2 0.0 0.00 0.00 0.00 86 1018.1
20260507203050 15 17 4.8 0.0 0.00 0.00 0.00 86 1018.0
20260507203010 15 17 4.8 0.0 0.00 0.00 0.00 86 1018.1
20260507202950 15 18 3.2 8.0 0.00 0.00 0.00 86 1017.7
20260507202520 15 346 6.4 0.0 0.00 0.00 0.00 85 1018.2
20260507202018 15 282 4.8 0.0 0.00 0.00 0.00 85 1018.2
20260507201949 15 313 6.4 9.7 0.00 0.00 0.00 85 1017.7
20260507201633 15 321 4.8 0.0 0.00 0.00 0.00 84 1018.1
20260507201525 15 258 4.8 0.0 0.00 0.00 0.00 84 1018.1
20260507201024 15 211 4.8 0.0 0.00 0.00 0.00 84 1018.0
20260507200949 15 198 1.6 8.0 0.00 0.00 0.00 84 1017.5
20260507200524 15 197 6.4 0.0 0.00 0.00 0.00 84 1018.0
20260507200043 15 200 4.8 0.0 0.00 0.00 0.00 84 1017.9
20260507195948 15 205 4.8 8.0 0.00 0.00 0.00 84 1017.5
20260507195522 16 213 4.8 0.0 0.00 0.00 0.00 84 1017.9
20260507195024 16 200 6.4 0.0 0.00 0.00 0.00 84 1017.9
20260507194950 16 198 4.8 11.3 0.00 0.00 0.00 84 1017.5
20260507194514 16 200 6.4 0.0 0.00 0.00 0.00 84 1017.9
20260507194012 16 204 4.8 0.0 0.00 0.00 0.00 84 1017.9
20260507193950 16 204 4.8 8.0 0.00 0.00 0.00 84 1017.5
20260507193533 16 221 4.8 0.0 0.00 0.00 0.00 83 1018.0
20260507193015 16 219 4.8 0.0 0.00 0.00 0.00 83 1018.0
20260507192949 16 217 3.2 4.8 0.00 0.00 0.00 83 1017.6
20260507192535 16 207 4.8 0.0 0.00 0.00 0.00 83 1017.9
20260507192014 16 199 6.4 0.0 0.00 0.00 0.00 83 1017.7
20260507191950 16 201 4.8 8.0 0.00 0.00 0.00 83 1017.3
20260507191632 16 206 4.8 0.0 0.00 0.00 0.00 83 1017.8
20260507191516 16 209 6.4 0.0 0.00 0.00 0.00 83 1017.8
20260507191009 16 219 6.4 0.0 0.00 0.00 0.00 83 1018.0
20260507190950 16 217 4.8 8.0 0.00 0.00 0.00 83 1017.6
20260507190526 16 205 6.4 0.0 0.00 0.00 0.00 83 1018.0
20260507190036 16 196 6.4 0.0 0.00 0.00 0.00 83 1017.9
20260507185950 16 194 4.8 11.3 0.00 0.00 0.00 83 1017.6
20260507185549 16 202 8.0 0.0 0.00 0.00 0.00 83 1018.0
20260507185013 16 206 6.4 0.0 0.00 0.00 0.00 82 1018.0
20260507184949 16 209 8.0 11.3 0.00 0.00 0.00 82 1017.5
20260507184516 17 211 4.8 0.0 0.00 0.00 0.00 82 1017.9
20260507184022 17 212 4.8 0.0 0.00 0.00 0.00 82 1017.9
20260507183950 17 212 4.8 8.0 0.00 0.00 0.00 82 1017.7
20260507183525 17 223 4.8 0.0 0.00 0.00 0.00 81 1018.0
20260507183149 17 228 4.8 0.0 0.00 0.00 0.00 81 1017.8
20260507183014 17 217 3.2 0.0 0.00 0.00 0.00 81 1017.7
20260507182522 17 193 4.8 0.0 0.00 0.00 0.00 80 1017.7
20260507182014 17 193 3.2 0.0 0.00 0.00 0.00 80 1017.6
20260507181950 17 193 4.8 4.8 0.00 0.00 0.00 80 1017.2
20260507181623 17 193 3.2 0.0 0.00 0.00 0.00 80 1017.5
20260507181543 17 193 3.2 0.0 0.00 0.00 0.00 80 1017.5
20260507181024 17 193 4.8 0.0 0.00 0.00 0.00 79 1017.5
20260507180950 17 193 3.2 4.8 0.00 0.00 0.00 79 1017.2
20260507180518 17 193 4.8 0.0 0.00 0.00 0.00 79 1017.5
20260507180039 18 193 3.2 0.0 0.00 0.00 0.00 79 1017.6
20260507175950 18 195 3.2 4.8 0.00 0.00 0.00 78 1017.3
20260507175544 18 227 3.2 0.0 0.00 0.00 0.00 78 1017.6
20260507175014 18 227 3.2 0.0 0.00 0.00 0.00 77 1017.6
20260507174950 18 227 3.2 4.8 0.00 0.00 0.00 77 1017.4
20260507174629 18 227 3.2 0.0 0.00 0.00 0.00 77 1017.7
20260507174515 18 227 3.2 0.0 0.00 0.00 0.00 77 1017.7
20260507174015 18 227 3.2 0.0 0.00 0.00 0.00 76 1017.6
20260507173950 18 227 3.2 4.8 0.00 0.00 0.00 76 1017.4
20260507173521 19 227 4.8 0.0 0.00 0.00 0.00 76 1017.8
20260507173011 19 229 3.2 0.0 0.00 0.00 0.00 75 1017.9
20260507172950 19 229 3.2 4.8 0.00 0.00 0.00 75 1017.4
20260507172526 19 242 3.2 0.0 0.00 0.00 0.00 75 1017.9
20260507172019 20 263 3.2 0.0 0.00 0.00 0.00 74 1018.0
20260507171950 20 263 3.2 4.8 0.00 0.00 0.00 74 1017.7
20260507171543 20 263 3.2 0.0 0.00 0.00 0.00 74 1017.9
20260507171024 20 263 1.6 0.0 0.00 0.00 0.00 71 1017.9
20260507170950 20 286 3.2 4.8 0.00 0.00 0.00 71 1017.4
20260507170549 20 360 0.0 0.0 0.00 0.00 0.00 70 1017.7
20260507170045 20 360 1.6 0.0 0.00 0.00 0.00 70 1017.6
20260507165950 20 0 0.0 3.2 0.00 0.00 0.00 70 1017.1
20260507165525 20 360 1.6 0.0 0.00 0.00 0.00 70 1017.4
20260507165020 20 360 1.6 0.0 0.00 0.00 0.00 70 1017.5
20260507164950 20 0 1.6 3.2 0.00 0.00 0.00 69 1017.3
20260507164609 20 360 1.6 0.0 0.00 0.00 0.00 67 1017.4
20260507164514 20 360 1.6 0.0 0.00 0.00 0.00 67 1017.5
20260507164024 20 355 1.6 0.0 0.00 0.00 0.00 66 1017.5
20260507163951 20 355 3.2 4.8 0.00 0.00 0.00 66 1017.2
20260507163517 20 355 1.6 0.0 0.00 0.00 0.00 69 1017.8
20260507163138 20 339 3.2 0.0 0.00 0.00 0.00 68 1017.7
20260507163013 20 339 3.2 0.0 0.00 0.00 0.00 67 1017.8
20260507162951 20 339 1.6 4.8 0.00 0.00 0.00 66 1017.5
20260507162524 20 339 3.2 0.0 0.00 0.00 0.00 67 1017.7
20260507162012 20 338 3.2 0.0 0.00 0.00 0.00 67 1017.7
20260507161950 20 338 1.6 4.8 0.00 0.00 0.00 67 1017.3
20260507161530 20 331 4.8 0.0 0.00 0.00 0.00 68 1017.8
20260507161504 20 331 4.8 0.0 0.00 0.00 0.00 68 1017.7
20260507161016 20 344 4.8 0.0 0.00 0.00 0.00 68 1017.8
20260507160951 20 344 3.2 4.8 0.00 0.00 0.00 68 1017.4
20260507160515 21 341 6.4 0.0 0.00 0.00 0.00 68 1017.9
20260507160138 20 340 6.4 0.0 0.00 0.00 0.00 67 1017.6
20260507160019 21 344 6.4 0.0 0.00 0.00 0.00 67 1017.9
20260507155523 21 343 4.8 0.0 0.00 0.00 0.00 67 1017.9
20260507155032 21 345 4.8 0.0 0.00 0.00 0.00 67 1017.9
20260507154950 21 347 3.2 4.8 0.00 0.00 0.00 67 1017.5
20260507154649 21 336 4.8 0.0 0.00 0.00 0.00 67 1017.9
20260507154516 21 331 4.8 0.0 0.00 0.00 0.00 66 1017.9
20260507154021 21 338 3.2 0.0 0.00 0.00 0.00 65 1017.8
20260507153513 21 348 3.2 0.0 0.00 0.00 0.00 67 1017.7
20260507153117 21 348 1.6 0.0 0.00 0.00 0.00 66 1017.7
20260507153017 21 348 1.6 0.0 0.00 0.00 0.00 67 1017.9
20260507152953 21 348 3.2 4.8 0.00 0.00 0.00 66 1017.4
20260507152518 21 348 1.6 0.0 0.00 0.00 0.00 65 1017.8
20260507152011 22 348 1.6 0.0 0.00 0.00 0.00 64 1017.7
20260507151949 22 348 3.2 4.8 0.00 0.00 0.00 64 1017.4
20260507151655 21 326 1.6 0.0 0.00 0.00 0.00 65 1017.7
20260507151533 22 319 1.6 0.0 0.00 0.00 0.00 65 1017.7
20260507151024 21 236 0.0 0.0 0.00 0.00 0.00 67 1017.7
20260507150950 21 236 1.6 3.2 0.00 0.00 0.00 66 1017.5
20260507150520 21 236 0.0 0.0 0.00 0.00 0.00 66 1017.7
20260507150144 21 236 0.0 0.0 0.00 0.00 0.00 67 1017.7
20260507150015 21 236 0.0 0.0 0.00 0.00 0.00 67 1017.9
20260507145949 21 236 0.0 1.6 0.00 0.00 0.00 67 1017.6
20260507145509 21 236 0.0 0.0 0.00 0.00 0.00 69 1017.8
20260507145032 20 236 1.6 0.0 0.00 0.00 0.00 70 1018.0
20260507144516 20 236 1.6 0.0 0.00 0.00 0.00 71 1017.9
20260507144051 20 236 1.6 0.0 0.00 0.00 0.00 72 1017.8
20260507143534 20 236 6.4 0.0 0.00 0.00 0.00 71 1017.9
20260507143049 20 244 8.0 0.0 0.00 0.00 0.00 70 1017.9
20260507143022 20 236 8.0 0.0 0.00 0.00 0.00 69 1018.0
20260507142951 20 242 9.7 12.9 0.00 0.00 0.00 69 1017.5
20260507142513 20 242 8.0 0.0 0.00 0.00 0.00 70 1017.8
20260507142046 20 232 6.4 0.0 0.00 0.00 0.00 69 1017.8
20260507141636 20 225 4.8 0.0 0.00 0.00 0.00 69 1017.6
20260507141528 20 227 4.8 0.0 0.00 0.00 0.00 69 1017.6
20260507141013 20 234 3.2 0.0 0.00 0.00 0.00 69 1017.7
20260507140950 20 237 4.8 8.0 0.00 0.00 0.00 70 1017.4
20260507140525 21 231 3.2 0.0 0.00 0.00 0.00 70 1017.6
20260507140010 21 243 3.2 0.0 0.00 0.00 0.00 69 1017.8
20260507135951 20 243 3.2 4.8 0.00 0.00 0.00 70 1017.4
20260507135547 21 234 1.6 0.0 0.00 0.00 0.00 71 1017.7
20260507135031 20 257 1.6 0.0 0.00 0.00 0.00 71 1017.8
20260507134951 20 257 1.6 4.8 0.00 0.00 0.00 72 1017.5
20260507134604 20 259 1.6 0.0 0.00 0.00 0.00 71 1017.8
20260507134512 20 236 1.6 0.0 0.00 0.00 0.00 70 1017.8
20260507134014 20 280 1.6 0.0 0.00 0.00 0.00 70 1017.8
20260507133950 20 280 1.6 3.2 0.00 0.00 0.00 71 1017.5
20260507133531 20 280 1.6 0.0 0.00 0.00 0.00 72 1017.9
20260507133121 20 280 1.6 0.0 0.00 0.00 0.00 73 1017.9
20260507133045 20 280 1.6 0.0 0.00 0.00 0.00 73 1018.0
20260507132951 20 280 1.6 3.2 0.00 0.00 0.00 73 1017.6
20260507132524 20 280 0.0 0.0 0.00 0.00 0.00 73 1018.0
20260507132022 20 280 0.0 0.0 0.00 0.00 0.00 75 1018.0
20260507131951 20 280 0.0 1.6 0.00 0.00 0.00 75 1017.9
20260507131645 19 280 0.0 0.0 0.00 0.00 0.00 75 1018.0
20260507131515 19 280 0.0 0.0 0.00 0.00 0.00 75 1018.1
20260507131014 19 280 1.6 0.0 0.00 0.00 0.00 76 1018.2
20260507130534 20 280 1.6 0.0 0.00 0.00 0.00 77 1018.4
20260507130026 20 280 1.6 0.0 0.00 0.00 0.00 75 1018.7
20260507125515 20 280 3.2 0.0 0.00 0.00 0.00 76 1018.6
20260507125013 20 280 3.2 0.0 0.00 0.00 0.00 77 1018.9
20260507124537 20 288 3.2 0.0 0.00 0.00 0.00 76 1018.9
20260507124008 20 284 4.8 0.0 0.00 0.00 0.00 75 1019.1
20260507123952 20 284 3.2 9.7 0.00 0.00 0.00 75 1018.9
20260507123523 20 274 6.4 0.0 0.00 0.00 0.00 74 1019.2
20260507123011 20 276 6.4 0.0 0.00 0.00 0.00 73 1019.2
20260507122950 20 282 6.4 12.9 0.00 0.00 0.00 73 1018.9
20260507122532 20 263 6.4 0.0 0.00 0.00 0.00 72 1019.3
20260507122054 20 265 4.8 0.0 0.00 0.00 0.00 74 1019.4
20260507121951 20 261 4.8 4.8 0.00 0.00 0.00 73 1019.0
20260507121523 20 246 4.8 0.0 0.00 0.00 0.00 75 1019.4
20260507121028 20 246 4.8 0.0 0.00 0.00 0.00 74 1019.4
20260507120950 20 244 4.8 11.3 0.00 0.00 0.00 74 1019.1
20260507120520 20 245 4.8 0.0 0.00 0.00 0.00 73 1019.4
20260507120012 20 236 4.8 0.0 0.00 0.00 0.00 74 1019.4
20260507115951 20 234 4.8 8.0 0.00 0.00 0.00 74 1019.1
20260507115516 20 244 4.8 0.0 0.00 0.00 0.00 74 1019.3
20260507115039 20 257 4.8 0.0 0.00 0.00 0.00 74 1019.3
20260507114951 20 266 3.2 4.8 0.00 0.00 0.00 74 1019.0
20260507114525 20 278 4.8 0.0 0.00 0.00 0.00 74 1019.4
20260507114013 20 267 4.8 0.0 0.00 0.00 0.00 74 1019.4
20260507113524 20 249 4.8 0.0 0.00 0.00 0.00 75 1019.3
20260507113142 20 251 4.8 0.0 0.00 0.00 0.00 75 1019.3
20260507113014 20 255 4.8 0.0 0.00 0.00 0.00 75 1019.2
20260507112952 20 256 3.2 4.8 0.00 0.00 0.00 75 1019.0
20260507112512 20 258 4.8 0.0 0.00 0.00 0.00 73 1019.2
20260507112027 20 259 4.8 0.0 0.00 0.00 0.00 73 1019.4
20260507111951 20 259 3.2 11.3 0.00 0.00 0.00 73 1018.9
20260507111647 20 259 6.4 0.0 0.00 0.00 0.00 71 1019.3
20260507111523 20 264 6.4 0.0 0.00 0.00 0.00 70 1019.3
20260507111017 21 257 4.8 0.0 0.00 0.00 0.00 66 1019.3
20260507110513 21 267 4.8 0.0 0.00 0.00 0.00 65 1019.3
20260507110027 21 259 4.8 0.0 0.00 0.00 0.00 65 1019.2
20260507105951 21 259 4.8 11.3 0.00 0.03 0.00 64 1018.8
20260507105518 21 252 6.4 0.0 0.00 0.00 0.00 64 1019.1
20260507105030 21 246 6.4 0.0 0.00 0.00 0.00 64 1019.2
20260507104951 21 264 4.8 11.3 0.00 0.03 0.00 64 1018.9
20260507104559 20 272 6.4 0.0 0.00 0.00 0.00 65 1019.1
20260507104538 21 271 6.4 0.0 0.00 0.00 0.00 65 1019.1
20260507104021 21 252 6.4 0.0 0.00 0.00 0.00 64 1019.0
20260507103537 21 255 4.8 0.0 0.00 0.00 0.00 64 1018.9
20260507103119 20 258 6.4 0.0 0.00 0.00 0.00 64 1018.9
20260507103014 21 266 6.4 0.0 0.00 0.00 0.00 64 1018.8
20260507102952 21 264 4.8 11.3 0.00 0.03 0.00 63 1018.6
20260507102524 21 302 6.4 0.0 0.00 0.00 0.00 65 1018.8
20260507102023 21 257 6.4 0.0 0.00 0.00 0.00 64 1018.9
20260507101951 21 253 6.4 11.3 0.00 0.03 0.00 63 1018.6
20260507101621 20 263 6.4 0.0 0.00 0.00 0.00 63 1018.7
20260507101519 21 264 6.4 0.0 0.00 0.00 0.00 63 1018.8
20260507101025 21 246 6.4 0.0 0.00 0.00 0.00 62 1018.6
20260507100952 21 273 4.8 9.7 0.00 0.03 0.00 62 1018.3
20260507100523 21 273 6.4 0.0 0.00 0.00 0.00 62 1018.6
20260507100124 21 265 6.4 0.0 0.00 0.00 0.00 62 1018.6
20260507100033 21 263 6.4 0.0 0.00 0.00 0.00 62 1018.6
20260507095951 21 259 4.8 12.9 0.00 0.03 0.00 62 1018.4
20260507095528 21 262 6.4 0.0 0.00 0.00 0.00 61 1018.6
20260507095043 21 264 4.8 0.0 0.00 0.00 0.00 60 1018.6
20260507094951 21 257 6.4 9.7 0.00 0.03 0.00 60 1018.4
20260507094609 21 259 4.8 0.0 0.00 0.00 0.00 60 1018.5
20260507094517 22 253 4.8 0.0 0.00 0.00 0.00 60 1018.5
20260507094029 22 263 4.8 0.0 0.00 0.00 0.00 59 1018.4
20260507093951 22 267 4.8 4.8 0.00 0.03 0.00 60 1018.0
20260507093517 22 286 4.8 0.0 0.00 0.00 0.00 60 1018.4
20260507093108 22 254 3.2 0.0 0.00 0.00 0.00 60 1018.4
20260507093009 22 219 3.2 0.0 0.00 0.00 0.00 59 1018.4
20260507092952 22 219 3.2 4.8 0.00 0.03 0.00 59 1018.1
20260507092525 22 268 3.2 0.0 0.00 0.00 0.00 59 1018.4
20260507092011 22 267 3.2 0.0 0.00 0.00 0.00 60 1018.5
20260507091606 21 268 1.6 0.0 0.00 0.00 0.00 60 1018.4
20260507091524 22 277 1.6 0.0 0.00 0.00 0.00 59 1018.5
20260507091040 22 5 1.6 0.0 0.00 0.00 0.00 58 1018.4
20260507090951 22 7 0.0 4.8 0.00 0.03 0.00 58 1018.1
20260507090527 22 10 1.6 0.0 0.00 0.00 0.00 59 1018.4
20260507090045 21 36 1.6 0.0 0.00 0.00 0.00 60 1018.3
20260507090013 22 36 1.6 0.0 0.00 0.00 0.00 60 1018.3
20260507085951 21 36 1.6 4.8 0.00 0.03 0.00 58 1017.9
20260507085524 22 39 1.6 0.0 0.00 0.00 0.00 58 1018.2
20260507085018 21 40 1.6 0.0 0.00 0.00 0.00 60 1018.2
20260507084951 21 55 1.6 4.8 0.00 0.03 0.00 60 1017.7
20260507084542 21 61 3.2 0.0 0.00 0.00 0.00 58 1018.1
20260507084524 21 93 4.8 0.0 0.00 0.00 0.00 59 1018.0
20260507084019 21 65 6.4 0.0 0.00 0.00 0.00 58 1018.0
20260507083952 21 71 4.8 11.3 0.00 0.03 0.00 58 1017.5
20260507083535 21 78 3.2 0.0 0.00 0.00 0.00 58 1017.9
20260507083126 21 64 1.6 0.0 0.00 0.00 0.00 59 1017.9
20260507083045 21 40 1.6 0.0 0.00 0.00 0.00 58 1017.9
20260507082951 21 73 1.6 4.8 0.00 0.03 0.00 58 1017.6
20260507082514 21 51 4.8 0.0 0.00 0.00 0.00 57 1017.9
20260507082020 21 120 4.8 0.0 0.00 0.00 0.00 57 1017.9
20260507081951 21 107 4.8 12.9 0.00 0.03 0.00 57 1017.5
20260507081603 21 78 4.8 0.0 0.00 0.00 0.00 57 1017.9
20260507081513 21 69 4.8 0.0 0.00 0.00 0.00 57 1018.0
20260507081026 21 28 4.8 0.0 0.00 0.00 0.00 56 1017.8
20260507080952 21 49 4.8 11.3 0.00 0.03 0.00 56 1017.6
20260507080513 21 42 4.8 0.0 0.00 0.00 0.00 57 1017.9
20260507080026 21 83 3.2 0.0 0.00 0.00 0.00 57 1017.8
20260507075952 21 69 3.2 8.0 0.00 0.03 0.00 57 1017.6
20260507075518 20 67 3.2 0.0 0.00 0.00 0.00 60 1018.0
20260507075024 20 70 3.2 0.0 0.00 0.00 0.00 61 1017.9
20260507074951 20 53 4.8 8.0 0.00 0.03 0.00 61 1017.8
20260507074601 20 96 4.8 0.0 0.00 0.00 0.00 61 1017.8
20260507074537 20 96 3.2 0.0 0.00 0.00 0.00 61 1018.0
20260507074028 20 80 3.2 0.0 0.00 0.00 0.00 61 1017.9
20260507073517 20 13 1.6 0.0 0.00 0.00 0.00 63 1017.9
20260507073029 19 17 1.6 0.0 0.00 0.00 0.00 62 1017.9
20260507073006 19 30 1.6 0.0 0.00 0.00 0.00 62 1017.8
20260507072952 19 30 3.2 4.8 0.00 0.03 0.00 63 1017.5
20260507072537 19 64 1.6 0.0 0.00 0.00 0.00 63 1017.9
20260507072026 19 64 1.6 0.0 0.00 0.00 0.00 63 1017.9
20260507071616 18 41 3.2 0.0 0.00 0.00 0.00 63 1017.9
20260507071558 19 41 3.2 0.0 0.00 0.00 0.00 63 1018.0